RH
36 40 39 41 47 53 58 64 70 76 72 76 76 77 76 77 77 65 62 66 60 57 55 56 66 69 68 70 72 69 72 63 61
35 36 39 40 46 51 56 58 67 67 69 71 72 70 72 76 75 74 65 71 65 56 69 60 68 68 70 69 68 71 74 86 78
33 37 40 40 43 47 51 51 55 63 70 66 68 68 67 65 67 72 68 69 71 67 69 71 73 70 73 71 70 70 76 82 71
49 43 34 41 43 46 49 50 54 60 70 69 68 66 68 66 64 64 68 65 68 68 67 72 73 72 70 69 69 71 77 79 74
55 58 55 43 42 48 53 56 57 62 67 67 65 67 70 68 66 64 58 64 65 68 70 69 73 72 73 74 71 73 76 74 64
58 61 62 58 43 50 57 59 64 65 69 71 64 66 65 65 63 63 59 58 62 67 70 70 63 71 74 75 71 76 74 74 73
58 60 60 62 64 56 55 62 66 70 68 73 74 67 64 66 64 61 58 60 64 65 69 70 68 69 72 73 70 70 70 69 69
53 54 56 60 62 68 66 63 69 70 67 72 75 76 75 72 70 67 67 68 68 68 70 68 68 69 70 69 63 54 72 70 68
54 56 53 54 62 62 65 73 67 68 69 71 75 78 75 80 80 77 76 75 75 76 75 76 74 73 71 70 55 70 85 77 67
54 53 56 56 60 64 65 67 73 73 70 69 76 79 79 82 84 84 81 78 78 78 79 76 79 75 74 75 72 85 92 91 66
53 54 56 55 56 66 67 67 63 71 75 73 78 80 80 80 84 85 83 82 81 81 77 79 78 76 78 77 74 95 93 94 74
48 50 56 57 54 65 72 73 76 80 78 75 75 77 78 79 79 80 83 85 84 81 81 84 82 76 81 84 81 98 97 95 76
50 48 50 56 57 59 62 65 75 77 80 80 78 74 75 76 78 80 80 83 84 84 81 82 81 77 78 84 86 97 100 97 86
52 53 53 55 57 60 61 66 70 76 74 76 74 80 78 76 77 79 80 82 81 82 88 86 86 86 80 84 82 77 100 100 92
57 57 58 58 62 58 54 62 71 76 78 74 77 76 76 85 84 76 68 83 81 84 83 87 87 89 83 76 85 98 99 100 100
60 60 58 62 65 65 61 60 67 74 75 81 79 78 75 78 79 89 84 83 82 80 84 74 78 81 77 72 91 96 100 100 100
61 60 62 60 67 68 67 64 63 70 74 78 84 79 77 79 83 83 82 90 88 87 83 80 69 74 80 73 91 95 95 93 94
64 65 64 64 68 69 70 68 68 64 69 74 82 80 74 72 65 75 70 81 97 94 79 75 71 70 75 79 89 86 95 95 93
69 71 69 72 72 72 72 70 70 70 69 74 74 71 64 62 60 62 65 94 99 99 100 100 100 100 80 73 93 100 100 100 100
74 74 75 76 76 72 73 74 73 68 73 74 78 77 72 64 74 63 77 98 97 99 100 100 100 100 100 100 99 100 100 100 100
Wind_Speed
3 12 13 14 15 13 15 15 15 13 16 15 15 15 15 13 13 8 7 9 6 6 7 6 6 7 7 7 6 5 4 3 3
4 6 12 15 15 16 15 16 17 18 16 15 16 17 14 14 13 12 9 8 8 6 4 5 6 6 7 8 7 6 6 4 5
11 5 6 11 13 14 14 15 16 16 16 18 16 16 15 14 14 13 11 9 9 9 6 5 5 6 7 7 7 7 6 5 5
16 14 9 9 12 13 14 13 15 16 16 16 16 17 15 15 14 14 13 11 10 9 8 7 7 8 7 7 7 8 7 9 7
15 16 16 12 10 12 13 15 15 17 16 16 16 15 15 16 14 13 14 14 13 11 10 9 8 8 9 8 8 8 8 9 7
15 16 18 16 7 8 11 13 15 16 16 17 15 15 15 15 15 15 15 15 13 12 11 10 10 9 9 10 9 9 9 8 7
15 15 16 16 15 10 7 10 12 14 15 14 14 15 15 16 16 16 15 14 13 13 13 12 12 11 10 9 8 9 9 8 9
15 16 17 16 15 13 10 7 9 11 13 13 14 14 14 16 14 14 13 14 13 13 13 13 12 12 11 11 10 9 10 10 10
15 15 16 15 15 13 12 10 7 9 12 13 13 15 15 11 12 13 14 13 13 13 13 13 13 14 13 13 10 10 11 10 9
12 15 15 15 14 12 11 9 9 7 10 12 14 15 14 13 12 12 13 13 13 14 14 13 14 15 14 13 14 12 14 14 10
13 15 16 15 13 12 11 11 10 8 6 11 13 13 14 14 13 13 13 13 14 13 12 13 13 13 14 13 12 13 15 15 12
15 15 14 14 13 13 12 11 9 10 9 8 11 13 14 15 15 14 14 14 14 12 12 12 12 12 13 14 12 12 12 11 10
19 15 15 13 15 15 13 11 9 7 7 5 8 11 12 14 14 15 15 14 14 11 13 13 10 12 13 14 13 13 12 10 6
18 17 16 15 14 13 15 12 10 11 8 8 5 5 9 11 12 14 15 13 11 12 12 10 12 13 12 14 14 10 9 11 9
20 20 19 17 14 14 13 12 10 11 11 8 8 6 7 8 11 11 10 13 12 13 12 12 12 12 11 11 10 7 10 12 13
18 19 17 14 13 15 14 12 10 11 12 7 9 8 7 8 6 7 11 12 13 11 13 12 11 10 10 9 7 6 8 9 8
17 16 17 14 13 14 15 13 12 12 11 9 6 9 9 7 7 6 9 8 9 9 10 12 12 11 10 9 7 6 5 4 4
18 17 16 15 13 13 15 14 14 13 11 9 8 9 9 9 7 6 8 8 4 8 13 13 12 12 11 11 9 10 10 9 8
17 17 16 15 16 15 15 14 15 14 12 10 10 9 9 8 6 6 8 5 3 9 8 4 4 8 11 9 2 11 14 14 11
17 18 18 18 17 16 14 14 15 15 13 10 12 11 11 9 8 9 10 8 8 7 2 5 5 6 10 10 11 10 14 13 10
Wind_Direction
213 209 207 205 206 197 196 189 187 184 184 186 187 197 203 202 203 205 200 191 179 192 200 200 182 193 200 214 221 225 223 226 235
23 213 221 220 205 199 199 193 190 194 187 188 192 195 202 207 202 209 201 196 206 214 215 204 194 194 212 220 221 231 235 224 221
7 352 248 222 219 218 206 200 195 194 195 192 191 198 203 209 210 210 209 206 203 207 201 198 183 197 206 221 230 230 230 237 229
356 344 330 246 222 213 207 209 199 201 197 192 192 198 202 207 213 212 212 215 215 211 212 204 200 191 192 217 233 234 227 230 231
2 357 349 316 236 206 201 199 202 206 201 201 199 195 200 205 207 213 217 218 215 214 216 208 205 195 187 204 221 232 228 233 220
12 4 4 4 332 230 211 204 201 205 207 208 201 195 198 207 207 209 220 222 220 218 213 216 206 215 219 205 209 216 225 228 230
15 14 14 13 15 345 248 223 211 205 212 211 204 199 198 206 209 209 209 218 220 224 219 218 216 211 221 225 214 214 222 228 235
14 17 12 11 12 9 353 261 223 216 220 213 208 208 204 203 208 209 211 207 212 223 232 228 230 224 222 232 238 227 213 218 221
3 3 4 3 359 359 2 0 297 229 223 216 209 213 216 209 196 203 209 210 208 214 226 231 233 236 233 233 238 222 205 216 225
1 356 348 351 350 346 345 350 343 295 238 224 211 215 214 206 200 198 207 207 207 212 220 226 230 234 234 232 230 209 205 208 232
351 347 344 340 338 336 339 333 334 328 279 220 224 220 215 212 205 205 203 203 210 213 215 219 230 233 230 230 227 202 207 201 223
339 332 326 322 327 325 323 326 322 313 320 237 225 227 223 216 212 215 208 207 212 211 210 213 219 230 231 227 232 204 214 195 211
321 319 316 312 317 321 312 323 319 310 303 314 248 243 235 227 215 216 217 217 209 207 208 215 206 222 228 225 223 201 192 191 216
307 306 304 302 299 303 308 305 313 305 301 290 282 286 253 240 229 227 223 219 215 208 206 223 214 216 224 229 227 216 167 205 219
299 303 304 300 289 291 299 301 301 295 291 290 276 259 261 253 243 233 233 225 219 218 215 215 216 222 221 222 219 219 176 180 233
292 289 290 291 283 283 288 292 288 283 283 286 287 280 268 249 250 246 234 238 231 218 215 216 214 214 218 216 207 188 162 182 188
290 286 285 287 283 272 277 281 285 274 277 276 262 275 271 260 236 231 235 224 224 216 219 219 206 198 206 199 197 180 166 185 180
284 283 281 280 273 268 273 275 272 275 276 269 252 252 258 258 253 248 252 234 248 218 224 224 202 192 191 189 194 197 182 186 186
284 279 280 276 272 270 269 268 269 267 267 264 263 260 247 246 251 240 245 226 200 25 22 326 227 167 184 184 195 158 170 184 192
283 279 274 267 267 271 268 264 262 262 259 258 252 254 265 260 250 251 232 200 199 201 46 47 34 125 143 166 170 173 163 163 151